EZY533 LFLL-EGGP

Flight info

Callsign EZY533
Flight time N/A
Altitude 38000
Route BUSIL8S BUSIL DCT AMORO DCT MOMIL DCT BAGBI DCT SIZZA DCT LAULY DCT BRY DCT CLM DCT KOPOR DCT VESAN DCT RATUK DCT SOVAT L613 SANDY UN57 WELIN T420 ELVOS ELVOS1L
Aircraft A319/M-SDE3FGHIRWY/LB1

Departure

Time N/A
Airport Lyon Saint-Exupéry Airport (LFLL)

Arrival

Time 2026-05-04 22:05
Airport Liverpool John Lennon Airport (EGGP)
Time Latitude Longitude Altitude Speed Heading
2026-05-04 21:43 52.31921 -0.92358 27877 ft 405 kts 326°
2026-05-04 21:43 52.34296 -0.94716 27411 ft 400 kts 326°
2026-05-04 21:44 52.36600 -0.97227 27121 ft 388 kts 317°
2026-05-04 21:44 52.38392 -1.00336 27038 ft 372 kts 307°
2026-05-04 21:44 52.40017 -1.03563 26951 ft 359 kts 306°
2026-05-04 21:44 52.41585 -1.06702 26867 ft 360 kts 306°
2026-05-04 21:45 52.43173 -1.09907 26784 ft 361 kts 306°
2026-05-04 21:45 52.44759 -1.13119 26702 ft 360 kts 306°
2026-05-04 21:45 52.46335 -1.16320 26619 ft 360 kts 306°
2026-05-04 21:45 52.47896 -1.19489 26539 ft 360 kts 306°
2026-05-04 21:46 52.49471 -1.22683 26449 ft 359 kts 306°
2026-05-04 21:46 52.51046 -1.25886 26377 ft 359 kts 306°
2026-05-04 21:46 52.52599 -1.29044 26296 ft 357 kts 306°
2026-05-04 21:46 52.54168 -1.32234 26225 ft 356 kts 306°
2026-05-04 21:47 52.55718 -1.35393 26135 ft 355 kts 306°
2026-05-04 21:47 52.57255 -1.38532 26052 ft 355 kts 306°
2026-05-04 21:47 52.58811 -1.41715 25729 ft 354 kts 305°
2026-05-04 21:47 52.60349 -1.44868 25321 ft 351 kts 305°
2026-05-04 21:48 52.61854 -1.47956 24917 ft 349 kts 305°
2026-05-04 21:48 52.63371 -1.51071 24501 ft 346 kts 305°
2026-05-04 21:48 52.64864 -1.54140 24089 ft 345 kts 304°
2026-05-04 21:48 52.66369 -1.57236 23662 ft 343 kts 304°
2026-05-04 21:49 52.67846 -1.60277 23196 ft 341 kts 304°
2026-05-04 21:49 52.69346 -1.63371 22365 ft 348 kts 305°
2026-05-04 21:49 52.70883 -1.66556 21370 ft 361 kts 305°
2026-05-04 21:49 52.72458 -1.69821 20385 ft 373 kts 306°
2026-05-04 21:50 52.74086 -1.73189 19758 ft 376 kts 306°
2026-05-04 21:50 52.75709 -1.76536 19525 ft 366 kts 307°
2026-05-04 21:50 52.77267 -1.79752 19393 ft 352 kts 307°
2026-05-04 21:50 52.78783 -1.82886 19135 ft 344 kts 307°
2026-05-04 21:51 52.80215 -1.85863 18756 ft 341 kts 307°
2026-05-04 21:51 52.81689 -1.88941 18328 ft 339 kts 307°
2026-05-04 21:51 52.83131 -1.91956 17862 ft 337 kts 307°
2026-05-04 21:51 52.84588 -1.95002 17407 ft 335 kts 307°
2026-05-04 21:52 52.86037 -1.98034 16970 ft 332 kts 307°
2026-05-04 21:52 52.87454 -2.01005 16548 ft 332 kts 307°
2026-05-04 21:52 52.88844 -2.04048 15985 ft 333 kts 300°
2026-05-04 21:52 52.89653 -2.07615 15431 ft 332 kts 277°
2026-05-04 21:53 52.89561 -2.11423 14885 ft 332 kts 258°
2026-05-04 21:53 52.89040 -2.15118 14355 ft 332 kts 255°
2026-05-04 21:53 52.88478 -2.18856 13820 ft 332 kts 255°
2026-05-04 21:53 52.87925 -2.22503 13236 ft 325 kts 255°
2026-05-04 21:54 52.87421 -2.26085 12652 ft 318 kts 262°
2026-05-04 21:54 52.87567 -2.29684 12089 ft 312 kts 286°
2026-05-04 21:54 52.88595 -2.32819 11536 ft 309 kts 311°
2026-05-04 21:54 52.90224 -2.35038 11087 ft 302 kts 324°
2026-05-04 21:55 52.91937 -2.36947 10642 ft 295 kts 325°
2026-05-04 21:55 52.93629 -2.38817 10194 ft 286 kts 325°
2026-05-04 21:55 52.95258 -2.40612 9751 ft 279 kts 325°
2026-05-04 21:55 52.96854 -2.42389 9280 ft 278 kts 325°
2026-05-04 21:56 52.98450 -2.44170 8918 ft 277 kts 325°
2026-05-04 21:56 53.00055 -2.45952 8603 ft 277 kts 325°
2026-05-04 21:56 53.01668 -2.47740 8286 ft 275 kts 325°
2026-05-04 21:56 53.03238 -2.49478 7984 ft 274 kts 325°
2026-05-04 21:57 53.04829 -2.51243 7676 ft 272 kts 325°
2026-05-04 21:57 53.06405 -2.52989 7375 ft 270 kts 325°
2026-05-04 21:57 53.07951 -2.54705 6985 ft 269 kts 325°
2026-05-04 21:57 53.09514 -2.56419 6580 ft 267 kts 325°
2026-05-04 21:58 53.11024 -2.58069 6157 ft 266 kts 325°
2026-05-04 21:58 53.12578 -2.59781 5709 ft 264 kts 325°
2026-05-04 21:58 53.14088 -2.61464 5278 ft 263 kts 325°
2026-05-04 21:58 53.15600 -2.63159 4840 ft 261 kts 325°
2026-05-04 21:59 53.17109 -2.64862 4391 ft 259 kts 325°
2026-05-04 21:59 53.18653 -2.66312 3955 ft 258 kts 342°
2026-05-04 21:59 53.20429 -2.66650 3523 ft 256 kts 359°
2026-05-04 21:59 53.22168 -2.66636 3080 ft 247 kts
2026-05-04 22:00 53.23861 -2.66567 2638 ft 237 kts
2026-05-04 22:00 53.25469 -2.66459 2200 ft 229 kts
2026-05-04 22:00 53.27019 -2.66349 2005 ft 211 kts
2026-05-04 22:00 53.28399 -2.66242 2002 ft 189 kts
2026-05-04 22:01 53.29634 -2.66130 2030 ft 172 kts
2026-05-04 22:01 53.30797 -2.66023 2011 ft 166 kts
2026-05-04 22:01 53.31918 -2.65928 2004 ft 157 kts 358°
2026-05-04 22:01 53.32891 -2.66539 2008 ft 152 kts 320°
2026-05-04 22:02 53.33601 -2.67817 2007 ft 149 kts 308°
2026-05-04 22:02 53.34001 -2.69406 1848 ft 158 kts 283°
2026-05-04 22:02 53.33985 -2.71268 1584 ft 154 kts 269°
2026-05-04 22:02 53.33907 -2.72944 1368 ft 137 kts 269°
2026-05-04 22:03 53.33839 -2.74447 1182 ft 127 kts 270°
2026-05-04 22:03 53.33773 -2.75909 1004 ft 124 kts 269°
2026-05-04 22:03 53.33708 -2.77357 836 ft 124 kts 268°
2026-05-04 22:03 53.33644 -2.78781 667 ft 123 kts 268°
2026-05-04 22:04 53.33580 -2.80204 484 ft 124 kts 268°
2026-05-04 22:04 53.33517 -2.81635 325 ft 124 kts 267°
2026-05-04 22:04 53.33453 -2.83038 151 ft 123 kts 267°
2026-05-04 22:04 53.33389 -2.84382 89 ft 103 kts 266°
2026-05-04 22:05 53.33355 -2.85146 90 ft 27 kts 268°
2026-05-04 22:05 53.33383 -2.85367 93 ft 18 kts 290°
2026-05-04 22:05 53.33430 -2.85563 90 ft 18 kts 291°
2026-05-04 22:05 53.33493 -2.85632 89 ft 12 kts 61°
2026-05-04 22:06 53.33526 -2.85510 92 ft 11 kts 21°
2026-05-04 22:06 53.33599 -2.85489 92 ft 12 kts 55°
2026-05-04 22:06 53.33632 -2.85437 91 ft 5 kts 342°
2026-05-04 22:06 53.33667 -2.85442 90 ft 4 kts 358°
2026-05-04 22:07 53.33669 -2.85442 90 ft 0 kts 358°